Погода в Батагай-Алыте

Россия / Республика Саха (Якутия)     67°47′56″N   130°23′51″E
темп.,
°C
ветер,
м/с
пор.,
м/с
влажн.,
%
обл.,
%
осадки,
мм/ч
давл.,
гПа
погр.,
м
28 июня, вт
вт2800:00+1св1192100 0.1 100096
03:00+1сз019290 0.1 99971
06:00+2с119099 0.1 999160
09:00+2ссв2496100 0.6 999268
12:00+2ссв3590100 0.3 1000400
15:00+3ссв2488100 0.3 1001492
18:00+6ссв2378100 0.0 1002654
21:00+6сз118196 0.0 100287
29 июня, ср
ср2900:00+4з1186100 0.0 100310
03:00+4ссв118678 0.0 100410
06:00+6всв11766 0.0 1005306
09:00+8ююв226596 0.0 1006782
12:00+11ю335668 0.0 10051423
15:00+13ю434699 0.0 10041564
18:00+14ю4446100 0.0 10031109
21:00+12ююв226062 0.0 100211
30 июня, чт
чт3000:00+8ююв22735 0.0 100110
03:00+9юз1170100 0.0 100010
06:00+12юз1257100 0.0 1000214
09:00+16зюз253898 0.0 9991782
12:00+17з883936 0.0 9991715
15:00+16з974686 0.0 10011334
18:00+15з985066 0.0 1002888
21:00+13з785796 0.0 1003431
1 июля, пт
пт100:00+12з585992 0.0 1002173
03:00+11зюз116797 0.1 100317
06:00+13з345957 0.0 1003653
09:00+14сз3351100 0.0 1004943
12:00+16св334976 0.2 10051460
15:00+14св446387 1.4 1006850
18:00+14всв336393 1.1 1007779
21:00+13вюв117026 1.3 100724
2 июля, сб
сб200:00+10юв118076 0.1 100810
03:00+11ююв1178100 0.2 100711
06:00+12юв127497 0.1 1008158
09:00+14юв236566 0.3 1007572
12:00+17ююв3351100 0.1 10061430
15:00+19ююв2343100 0.1 10051839
18:00+19юв3342100 0.0 10041094
21:00+17вюв2254100 0.0 100416